This demonstration page uses our WeatherBlox Daily Observations layout. Learn more.

Left ArrowRight Arrow

53.62937, 11.41316

Hourly Observations for February 23, 2018

Temp ( °F °C ) Dew Point ( °F °C ) Humidity (%) Winds ( mph kmh ) Pressure ( in mb ) Visibility ( mi km ) Precip ( " mm )
7:50 am 07:50 Partly Cloudy 23 -5 19 -7 86 86 ENE 10 17 30.36 1028 30 48 N/A
8:20 am 08:20 Mostly Sunny 23 -5 19 -7 86 86 ENE 9 15 30.36 1028 30 48 N/A
8:50 am 08:50 Mostly Sunny 25 -4 19 -7 80 80 NE 9 15 30.36 1028 7 11 N/A
9:20 am 09:20 Mostly Sunny 25 -4 21 -6 86 86 ENE 12 19 30.36 1028 7 11 N/A
9:50 am 09:50 Mostly Sunny 27 -3 21 -6 80 80 ENE 10 17 30.39 1029 7 11 N/A
10:20 am 10:20 Mostly Sunny 27 -3 19 -7 74 74 ENE 10 17 30.39 1029 7 11 N/A
10:50 am 10:50 Mostly Sunny 28 -2 18 -8 64 64 ENE 10 17 30.39 1029 7 11 N/A
11:20 am 11:20 Mostly Sunny 30 -1 18 -8 59 59 E 10 17 30.39 1029 7 11 N/A
11:50 am 11:50 Mostly Sunny 30 -1 16 -9 55 55 ENE 10 17 30.39 1029 7 11 N/A
12:20 pm 12:20 Mostly Sunny 32 0 16 -9 51 51 ENE 10 17 30.39 1029 7 11 N/A
12:50 pm 12:50 Mostly Sunny 30 -1 14 -10 51 51 NNE 10 17 30.39 1029 7 11 N/A
1:20 pm 13:20 Mostly Sunny 32 0 12 -11 44 44 ENE 12 19 30.36 1028 7 11 N/A
1:50 pm 13:50 Mostly Sunny 32 0 12 -11 44 44 NE 12 19 30.39 1029 7 11 N/A
2:20 pm 14:20 Mostly Sunny 32 0 10 -12 40 40 NE 10 17 30.36 1028 7 11 N/A
2:50 pm 14:50 Mostly Sunny 30 -1 9 -13 40 40 ENE 13 20 30.36 1028 7 11 N/A
3:20 pm 15:20 Mostly Sunny 32 0 12 -11 44 44 ENE 12 19 30.36 1028 7 11 N/A
3:50 pm 15:50 Mostly Sunny 32 0 14 -10 47 47 ENE 12 19 30.36 1028 7 11 N/A
4:20 pm 16:20 Mostly Sunny 30 -1 14 -10 51 51 ENE 12 19 30.36 1028 7 11 N/A
4:50 pm 16:50 Mostly Sunny 30 -1 16 -9 55 55 ENE 9 15 30.36 1028 7 11 N/A
5:20 pm 17:20 Mostly Sunny 28 -2 16 -9 59 59 ENE 8 13 30.36 1028 7 11 N/A
5:50 pm 17:50 Mostly Clear 27 -3 14 -10 59 59 ENE 8 13 30.36 1028 7 11 N/A

Powered by AerisWeather